TimeEDT,TemperatureF,Dew PointF,Humidity,Sea Level PressureIn,VisibilityMPH,Wind Direction,Wind SpeedMPH,Gust SpeedMPH,PrecipitationIn,Events,Conditions,WindDirDegrees,DateUTC
12:51 AM,81.0,75.9,85,29.93,10.0,SSW,13.8,19.6,N/A,,Partly Cloudy,210,2012-08-10 04:51:00
1:51 AM,81.0,75.9,85,29.91,10.0,SSW,16.1,21.9,N/A,,Partly Cloudy,210,2012-08-10 05:51:00
2:51 AM,80.1,73.9,81,29.89,10.0,SW,16.1,23.0,N/A,,Clear,220,2012-08-10 06:51:00
3:53 AM,78.8,73.4,83,29.90,1.2,West,18.4,29.9,0.00,Rain,Heavy Rain,260,2012-08-10 07:53:00
3:59 AM,75.2,71.6,89,29.91,0.8,SW,16.1,26.5,0.18,Rain,Heavy Rain,230,2012-08-10 07:59:00
4:09 AM,78.8,73.4,83,29.90,1.5,SW,12.7,26.5,0.41,Rain,Light Rain,230,2012-08-10 08:09:00
4:15 AM,78.8,75.2,89,29.90,6.0,SW,10.4,19.6,0.41,,Mostly Cloudy,220,2012-08-10 08:15:00
4:51 AM,80.1,75.9,87,29.88,7.0,SW,13.8,21.9,0.41,,Clear,220,2012-08-10 08:51:00
5:33 AM,78.8,73.4,83,29.90,4.0,WSW,25.3,33.4,0.00,Rain,Light Rain,250,2012-08-10 09:33:00
5:35 AM,77.0,73.4,89,29.90,1.8,WSW,21.9,33.4,0.02,Rain,Light Rain,240,2012-08-10 09:35:00
5:40 AM,75.2,71.6,89,29.90,1.0,WSW,16.1,33.4,0.15,Rain,Heavy Rain,240,2012-08-10 09:40:00
5:45 AM,78.8,73.4,83,29.91,2.0,SW,11.5,29.9,0.15,Rain,Light Rain,230,2012-08-10 09:45:00
5:51 AM,79.0,75.0,88,29.91,7.0,SW,16.1,21.9,0.15,,Mostly Cloudy,230,2012-08-10 09:51:00
6:00 AM,80.6,75.2,84,29.91,7.0,SW,16.1,-,N/A,,Mostly Cloudy,230,2012-08-10 10:00:00
6:51 AM,73.9,71.1,91,29.93,6.0,West,11.5,20.7,0.06,Rain,Light Rain,260,2012-08-10 10:51:00
7:51 AM,78.1,73.0,84,29.92,5.0,WSW,12.7,19.6,0.00,Rain,Light Rain,240,2012-08-10 11:51:00
8:04 AM,77.0,73.4,89,29.92,2.5,SSW,12.7,27.6,0.03,Rain,Light Rain,210,2012-08-10 12:04:00
8:13 AM,78.8,73.4,83,29.93,5.0,SSW,11.5,19.6,0.03,Rain,Light Rain,200,2012-08-10 12:13:00
8:51 AM,79.0,73.9,84,29.93,7.0,SW,12.7,20.7,0.03,,Partly Cloudy,220,2012-08-10 12:51:00
9:51 AM,81.0,75.0,82,29.93,8.0,WSW,13.8,21.9,N/A,,Clear,240,2012-08-10 13:51:00
10:51 AM,84.0,75.9,76,29.94,8.0,WSW,10.4,-,N/A,,Clear,240,2012-08-10 14:51:00
11:51 AM,82.9,73.9,74,29.94,9.0,West,13.8,26.5,N/A,,Partly Cloudy,270,2012-08-10 15:51:00
12:51 PM,81.0,73.9,79,29.94,7.0,WSW,13.8,-,0.00,,Mostly Cloudy,250,2012-08-10 16:51:00
12:59 PM,78.8,73.4,83,29.93,1.5,WSW,16.1,21.9,0.01,Rain,Heavy Rain,240,2012-08-10 16:59:00
1:03 PM,78.8,73.4,83,29.93,0.8,WSW,12.7,21.9,0.09,Rain,Heavy Rain,240,2012-08-10 17:03:00
1:12 PM,78.8,73.4,83,29.93,3.0,SW,11.5,-,0.11,Rain,Light Rain,230,2012-08-10 17:12:00
1:51 PM,81.0,75.0,82,29.92,7.0,SW,9.2,-,0.11,,Clear,230,2012-08-10 17:51:00
2:51 PM,84.9,75.9,74,29.91,10.0,SW,13.8,23.0,N/A,,Clear,220,2012-08-10 18:51:00
3:51 PM,84.0,75.9,76,29.90,10.0,SSW,16.1,24.2,N/A,,Clear,210,2012-08-10 19:51:00
4:51 PM,84.0,75.0,74,29.90,9.0,SW,17.3,23.0,N/A,,Clear,220,2012-08-10 20:51:00
5:51 PM,84.0,77.0,79,29.92,8.0,SW,15.0,20.7,N/A,,Clear,220,2012-08-10 21:51:00
6:51 PM,82.0,75.9,82,29.91,8.0,SSW,15.0,21.9,N/A,,Clear,210,2012-08-10 22:51:00
7:51 PM,82.0,75.0,79,29.93,8.0,SSW,15.0,21.9,N/A,,Clear,210,2012-08-10 23:51:00
8:51 PM,82.0,75.9,82,29.94,8.0,SSW,12.7,20.7,N/A,,Mostly Cloudy,210,2012-08-11 00:51:00
9:46 PM,80.6,75.2,84,29.95,8.0,SSW,15.0,21.9,N/A,,Mostly Cloudy,210,2012-08-11 01:46:00
9:51 PM,81.0,75.9,85,29.95,8.0,SSW,16.1,-,N/A,,Scattered Clouds,210,2012-08-11 01:51:00
10:51 PM,82.0,75.9,82,29.95,9.0,SW,15.0,23.0,N/A,,Mostly Cloudy,220,2012-08-11 02:51:00
11:10 PM,82.4,75.2,79,29.95,9.0,SW,17.3,29.9,N/A,,Scattered Clouds,220,2012-08-11 03:10:00
11:51 PM,82.0,75.9,82,29.95,9.0,SW,15.0,23.0,N/A,,Clear,220,2012-08-11 03:51:00